[[{"header":{"parameterUnit":"m.s-1","parameterCategory":1,"la1":30.2991,"la2":30.254,"lo1":-89.0895,"lo2":-89.0444,"dy":0.0017,"dx":0.0017,"nx":28,"ny":28,"refTime":"2024-02-09T03:00:00:Z","depth":0,"parameterNumber":2,"parameterNumberName":"U-component_of_WINDS"},"data":[0,0,0,0,0,0,0,0,0,0,0,0,0,0,0,0,0,0,0,0,0,0,0,0,0,0,0,0,0,0,0,0,0,0,0,0,0,0,0,0,0,0,0,0,0,0,0,0,0,0,0,0,0,0,0,0,0,0,-2.6474,-2.6475,0,-2.6536,-2.6537,-2.6538,-2.652,-2.6519,-2.6518,-2.6517,-2.6583,-2.6586,-2.6589,0,0,0,0,0,0,0,0,0,0,0,0,0,-2.6341,-2.6343,-2.6474,-2.6475,-2.6475,-2.6536,-2.6537,-2.6538,-2.6521,-2.6519,-2.6518,-2.6516,-2.6582,-2.6585,-2.6589,0,0,0,0,0,0,0,0,0,0,0,0,0,-2.6401,-2.6344,-2.6474,-2.6474,-2.6475,-2.6536,-2.6537,-2.6538,-2.6521,-2.6519,-2.6517,-2.6515,-2.6581,-2.6585,-2.6589,-2.6655,0,0,-2.6603,-2.6605,0,0,0,0,0,0,0,0,-2.6397,-2.6406,-2.6473,-2.6474,-2.6475,-2.6519,-2.6515,-2.6578,-2.6522,-2.6504,-2.6517,-2.6514,-2.6563,-2.6569,-2.6585,-2.6658,-2.6661,-2.6603,-2.6606,-2.6608,-2.6609,0,0,0,0,0,0,0,-2.6393,-2.6403,-2.6499,-2.6474,-2.6475,-2.6472,-2.6478,-2.6526,-2.6543,-2.6505,-2.6504,-2.6511,-2.6563,-2.6581,-2.6586,-2.6662,-2.6603,-2.6607,-2.661,-2.6612,-2.6791,-2.6793,0,0,0,0,0,0,-2.6388,-2.6399,-2.6497,-2.6501,-2.6431,-2.6476,-2.6483,-2.6507,-2.6543,-2.6546,-2.6513,-2.651,-2.6574,-2.6581,-2.6589,-2.6666,-2.6608,-2.6612,-2.6615,-2.6789,-2.6791,-2.6794,0,0,0,0,0,0,-2.6385,-2.6397,-2.6494,-2.645,-2.6462,-2.648,-2.6507,-2.6509,-2.6526,-2.6549,-2.6552,-2.6527,-2.6573,-2.6582,-2.6638,-2.6669,-2.6614,-2.6618,-2.6786,-2.679,-2.6792,-2.6823,0,0,0,0,0,0,-2.6382,-2.6396,-2.6421,-2.645,-2.6464,-2.6542,-2.6509,-2.6511,-2.6534,-2.6531,-2.6563,-2.6567,-2.6572,-2.6632,-2.6643,-2.6674,-2.6622,-2.6784,-2.6788,-2.6791,-2.682,-2.6827,-2.6834,0,0,0,0,0,-2.6377,-2.6428,-2.6422,-2.6434,-2.6495,-2.6544,-2.6552,-2.6556,-2.6536,-2.6561,-2.6576,-2.6566,-2.6664,-2.6638,-2.665,-2.6683,-2.6782,-2.6787,-2.6791,-2.6817,-2.6826,-2.6834,0,0,0,0,0,0,-2.6402,-2.6432,-2.6426,-2.6488,-2.6513,-2.6541,-2.6573,-2.6566,-2.6599,-2.6595,-2.66,-2.6607,-2.6664,-2.6679,-2.6649,-2.6747,-2.672,-2.6727,-2.6735,-2.6744,-2.6751,-2.6745,-2.6625,0,0,0,0,0,-2.6415,-2.6452,-2.6476,-2.6528,-2.6541,-2.6555,-2.6576,-2.6577,-2.6604,-2.6615,-2.6634,-2.6661,-2.6698,-2.6722,-2.6757,-2.6822,-2.6829,-2.6851,-2.6858,-2.6864,-2.6869,-2.6904,-2.6913,-2.6809,-2.6809,-2.6809,0,0,-2.6442,-2.6463,-2.6485,-2.6534,-2.6553,-2.6591,-2.6564,-2.6606,-2.6633,-2.6622,-2.6675,-2.669,-2.672,-2.6781,-2.6808,-2.6795,-2.69,-2.687,-2.6874,-2.6877,-2.691,-2.6919,-2.6928,-2.6812,-2.6812,-2.6811,0,0,-2.651,-2.6529,-2.6574,-2.6595,-2.6625,-2.6634,-2.6644,-2.6673,-2.6682,-2.6735,-2.6727,-2.6761,-2.6824,-2.6846,-2.6866,-2.6941,-2.6933,-2.6953,-2.6988,-2.7022,-2.703,-2.7037,-2.7062,-2.7072,-2.6959,-2.6959,-2.6959,0,-2.6539,-2.6595,-2.6599,-2.664,-2.6661,-2.6652,-2.6697,-2.6717,-2.6758,-2.6773,-2.6757,-2.6836,-2.6856,-2.6921,-2.6939,-2.6956,-2.6968,-2.6948,-2.7028,-2.7036,-2.7042,-2.7067,-2.7076,-2.6961,-2.6961,-2.696,-2.696,0,-2.6629,-2.6668,-2.6701,-2.6739,-2.6764,-2.6808,-2.6818,-2.6843,-2.6842,-2.6852,-2.6906,-2.693,-2.6969,-2.6985,-2.6985,-2.705,-2.704,-2.7027,-2.6999,-2.7054,-2.7077,-2.7087,-2.6964,-2.6963,-2.6962,-2.6962,0,0,-2.6714,-2.6753,-2.6765,-2.6781,-2.6814,-2.6844,-2.6887,-2.6925,-2.6945,-2.6974,-2.701,-2.7064,-2.7051,-2.7073,-2.7075,-2.7105,-2.7161,-2.7088,-2.7088,-2.7099,-2.7232,-2.724,-2.7251,-2.7156,-2.7158,-2.716,-2.7229,0,-2.6784,-2.6858,-2.6862,-2.693,-2.6965,-2.6956,-2.6994,-2.7018,-2.7029,-2.7061,-2.7074,-2.7111,-2.7092,-2.7105,-2.7134,-2.7148,-2.7188,-2.7144,-2.7189,-2.7191,-2.718,-2.7263,-2.7273,-2.7337,-2.7238,-2.7239,-2.7241,0,-2.6874,-2.6904,-2.6975,-2.7001,-2.7016,-2.7049,-2.7083,-2.7114,-2.7141,-2.7147,-2.7171,-2.7169,-2.7214,-2.7185,-2.7246,-2.7215,-2.7235,-2.7245,-2.7247,-2.725,-2.7218,-2.7267,-2.7358,-2.7367,-2.7255,-2.7254,-2.7253,0,-2.6927,-2.6985,-2.7034,-2.7049,-2.7081,-2.7105,-2.7119,-2.7145,-2.7166,-2.7197,-2.7211,-2.7246,-2.7265,-2.7293,-2.7301,-2.728,-2.7361,-2.7333,-2.7366,-2.7366,-2.7383,-2.7381,-2.7475,-2.7398,-2.7398,-2.7397,-2.7397,0,-2.7003,-2.7046,-2.7058,-2.7088,-2.7137,-2.7141,-2.7189,-2.7202,-2.7225,-2.7257,-2.7253,-2.7284,-2.7293,-2.7326,-2.7333,-2.7381,-2.739,-2.7396,-2.7397,-2.7395,-2.7394,-2.7407,-2.7402,-2.74,-2.7399,-2.7399,-2.7398,0,-2.707,-2.708,-2.7132,-2.7158,-2.7166,-2.72,-2.7222,-2.7251,-2.7262,-2.7303,-2.7313,-2.7329,-2.7368,-2.7378,-2.7425,-2.7429,-2.7485,-2.7483,-2.7475,-2.7475,-2.7507,-2.7503,-2.7611,-2.7625,-2.754,-2.754,-2.7541,0,-2.7117,-2.7149,-2.7178,-2.7199,-2.7214,-2.7249,-2.7271,-2.7277,-2.73,-2.7333,-2.7358,-2.7395,-2.7425,-2.7487,-2.7503,-2.7538,-2.7536,-2.7571,-2.7541,-2.7538,-2.7534,-2.7531,-2.7534,-2.7576,-2.7577,-2.7578,-2.7579,0,-2.7198,-2.7201,-2.7232,-2.7265,-2.7291,-2.7317,-2.7343,-2.7361,-2.737,-2.7396,-2.7435,-2.7458,-2.7504,-2.7541,-2.7577,-2.7592,-2.7587,-2.7588,-2.7597,-2.7595,-2.7589,-2.7591,-2.7489,-2.7585,-2.7585,-2.7584,-2.7584,-2.7583,-2.7256,-2.7284,-2.7308,-2.7342,-2.7362,-2.7385,-2.7413,-2.7427,-2.7458,-2.7496,-2.7498,-2.7539,-2.7565,-2.7612,-2.7629,-2.7662,-2.7651,-2.7665,-2.7668,-2.7671,-2.7673,-2.7585,-2.7669,-2.7668,-2.7668,-2.7668,-2.7668,0,-2.7336,-2.7351,-2.7382,-2.7417,-2.7444,-2.7436,-2.7464,-2.7487,-2.7523,-2.7547,-2.7576,-2.762,-2.7655,-2.7674,-2.771,-2.7732,-2.773,-2.7741,-2.7739,-2.7742,-2.7681,-2.7669,-2.7742,-2.7742,-2.7742,-2.7742,-2.7742,-2.7741,-2.738,-2.7427,-2.7433,-2.7489,-2.7504,-2.7543,-2.7559,-2.7581,-2.76,-2.7648,-2.7677,-2.7689,-2.7711,-2.7748,-2.778,-2.7784,-2.7797,-2.7809,-2.7812,-2.7754,-2.7747,-2.7739,-2.7728,-2.7812,-2.7812,-2.787,-2.787,-2.7871]},{"header":{"parameterUnit":"m.s-1","parameterCategory":1,"la1":30.2991,"la2":30.254,"lo1":-89.0895,"lo2":-89.0444,"dy":0.0017,"dx":0.0017,"nx":28,"ny":28,"refTime":"2024-02-09T03:00:00:Z","depth":0,"parameterNumber":3,"parameterNumberName":"V-component_of_WINDS"},"data":[0,0,0,0,0,0,0,0,0,0,0,0,0,0,0,0,0,0,0,0,0,0,0,0,0,0,0,0,0,0,0,0,0,0,0,0,0,0,0,0,0,0,0,0,0,0,0,0,0,0,0,0,0,0,0,0,0,0,2.1435,2.1437,0,2.1636,2.1638,2.1641,2.1713,2.1712,2.1711,2.1711,2.1918,2.1924,2.193,0,0,0,0,0,0,0,0,0,0,0,0,0,2.1116,2.1121,2.1435,2.1437,2.144,2.1636,2.1638,2.1641,2.1713,2.1712,2.1711,2.171,2.1916,2.1924,2.1931,0,0,0,0,0,0,0,0,0,0,0,0,0,2.1279,2.1123,2.1434,2.1499,2.1507,2.1635,2.1639,2.1642,2.1713,2.1712,2.1711,2.171,2.1914,2.1923,2.1932,2.2011,0,0,2.196,2.1964,0,0,0,0,0,0,0,0,2.127,2.1291,2.1487,2.1495,2.1504,2.1648,2.1602,2.1766,2.1713,2.1635,2.171,2.1709,2.1829,2.1846,2.1886,2.2021,2.203,2.1961,2.1967,2.1971,2.1974,0,0,0,0,0,0,0,2.1259,2.1283,2.1514,2.149,2.15,2.1519,2.1541,2.1634,2.1736,2.1642,2.1647,2.167,2.1834,2.1877,2.1891,2.2033,2.1961,2.1969,2.1975,2.1979,2.2246,2.2248,0,0,0,0,0,0,2.1236,2.1273,2.1508,2.152,2.1382,2.1526,2.155,2.1603,2.1735,2.1754,2.1671,2.1673,2.1861,2.188,2.1899,2.2003,2.1971,2.198,2.1985,2.2245,2.2247,2.2248,0,0,0,0,0,0,2.1229,2.1256,2.15,2.1398,2.1431,2.1532,2.1591,2.1607,2.165,2.1757,2.1776,2.1695,2.1861,2.1886,2.1983,2.2011,2.1984,2.1992,2.2243,2.2246,2.2248,2.2209,0,0,0,0,0,0,2.1219,2.1253,2.1284,2.1398,2.1436,2.158,2.1592,2.1612,2.1666,2.167,2.1785,2.1803,2.1862,2.1969,2.1993,2.2023,2.2,2.2241,2.2244,2.2247,2.2209,2.221,2.2211,0,0,0,0,0,2.1208,2.1264,2.1285,2.1313,2.1476,2.1581,2.1603,2.1669,2.1668,2.17,2.1769,2.18,2.2003,2.1978,2.2006,2.2039,2.224,2.2243,2.2247,2.2208,2.221,2.2211,0,0,0,0,0,0,2.115,2.1281,2.1305,2.14,2.1479,2.1593,2.1636,2.1668,2.175,2.1751,2.183,2.1855,2.1947,2.2003,2.1973,2.2124,2.2124,2.2133,2.2085,2.2088,2.2089,2.2074,2.2007,0,0,0,0,0,2.1148,2.1223,2.1333,2.1406,2.1445,2.1533,2.1582,2.1626,2.1711,2.1745,2.1821,2.1904,2.1987,2.204,2.2122,2.2216,2.2244,2.2253,2.2254,2.2255,2.2262,2.232,2.2326,2.226,2.226,2.226,0,0,2.1146,2.1226,2.1268,2.1397,2.1463,2.154,2.1561,2.164,2.1699,2.1758,2.1855,2.1914,2.2011,2.2108,2.2155,2.2158,2.2287,2.2259,2.2259,2.2267,2.2324,2.233,2.2335,2.2262,2.2262,2.2261,0,0,2.1181,2.1248,2.1318,2.1385,2.1485,2.1544,2.1561,2.1671,2.1712,2.1811,2.1858,2.1928,2.2069,2.2137,2.219,2.2253,2.2286,2.2277,2.2285,2.234,2.2345,2.235,2.2375,2.2383,2.2284,2.2284,2.2284,0,2.1166,2.1282,2.135,2.1428,2.1484,2.1541,2.1614,2.1675,2.1797,2.1836,2.1836,2.2016,2.2085,2.2201,2.2216,2.2256,2.228,2.2266,2.2338,2.2344,2.235,2.2375,2.2384,2.2283,2.2283,2.2283,2.2283,0,2.1259,2.1339,2.1384,2.1501,2.1562,2.1637,2.1718,2.1772,2.1811,2.187,2.1971,2.2056,2.2158,2.2188,2.2227,2.231,2.2309,2.2323,2.2324,2.2354,2.2379,2.2389,2.2281,2.2281,2.2282,2.2282,0,0,2.1264,2.1419,2.1434,2.149,2.1605,2.1669,2.1747,2.1847,2.1893,2.1975,2.2044,2.2162,2.2177,2.2237,2.2284,2.2332,2.238,2.2341,2.2344,2.2347,2.248,2.247,2.248,2.2401,2.2403,2.2404,2.2473,0,2.1317,2.1458,2.1523,2.1636,2.1713,2.1769,2.1837,2.1916,2.1974,2.2048,2.2111,2.2195,2.2206,2.2244,2.2293,2.2363,2.2408,2.2359,2.2468,2.2471,2.2445,2.2493,2.2483,2.2543,2.2482,2.2484,2.2485,0,2.1397,2.148,2.1601,2.171,2.1745,2.1805,2.1903,2.1972,2.2064,2.2102,2.217,2.2215,2.2302,2.2295,2.2416,2.2382,2.243,2.2471,2.2476,2.249,2.2482,2.2511,2.2563,2.2573,2.2501,2.25,2.2498,0,2.1392,2.1534,2.1626,2.1671,2.1799,2.1841,2.1896,2.1987,2.2043,2.2129,2.2167,2.226,2.2312,2.2385,2.2455,2.2443,2.257,2.2569,2.2607,2.2605,2.2633,2.2631,2.2696,2.2659,2.2659,2.2659,2.2659,0,2.1445,2.1518,2.1626,2.1682,2.1766,2.184,2.1921,2.1981,2.2061,2.2132,2.2185,2.225,2.2338,2.2414,2.247,2.2563,2.2586,2.2621,2.2635,2.2618,2.2614,2.2652,2.2651,2.2662,2.2661,2.2661,2.266,0,2.1454,2.1529,2.1633,2.1747,2.1777,2.1834,2.1932,2.199,2.205,2.2139,2.2164,2.2259,2.2352,2.2429,2.255,2.2588,2.2687,2.2702,2.2656,2.2664,2.2698,2.2695,2.2793,2.2811,2.2759,2.2759,2.276,0,2.1484,2.1542,2.1662,2.1713,2.1768,2.1849,2.1907,2.1982,2.2041,2.2151,2.2196,2.2293,2.2375,2.2522,2.2602,2.2697,2.2716,2.2744,2.2731,2.2712,2.272,2.2717,2.2725,2.2746,2.2746,2.2746,2.2746,0,2.1531,2.1566,2.1647,2.1742,2.181,2.1889,2.1968,2.2007,2.2097,2.2161,2.2257,2.232,2.2446,2.2542,2.2646,2.2704,2.2742,2.2749,2.2764,2.2748,2.272,2.2739,2.2662,2.2747,2.2747,2.2747,2.2747,2.2747,2.1554,2.1609,2.1703,2.1792,2.186,2.1934,2.1995,2.2063,2.2144,2.2252,2.2292,2.2391,2.2484,2.2626,2.2685,2.2765,2.2769,2.2789,2.2795,2.2799,2.2798,2.2705,2.2784,2.2784,2.2784,2.2784,2.2784,0,2.1607,2.167,2.1751,2.1862,2.1933,2.196,2.2051,2.2109,2.2195,2.2278,2.2358,2.247,2.2564,2.2652,2.2751,2.2798,2.2818,2.2822,2.2821,2.2835,2.2787,2.2767,2.2805,2.2805,2.2805,2.2805,2.2805,2.2805,2.1642,2.1737,2.1783,2.1913,2.1976,2.2074,2.2124,2.2193,2.226,2.2382,2.2461,2.2517,2.2604,2.271,2.2798,2.2822,2.2857,2.2857,2.2886,2.284,2.2837,2.2835,2.2816,2.2864,2.2864,2.2927,2.2927,2.2928]}]]